This demonstration page uses our WeatherBlox Daily Observations layout. Learn more.

Left ArrowRight Arrow

Hourly Observations for August 3, 2020

Temp ( °F °C ) Dew Point ( °F °C ) Humidity (%) Winds ( mph kmh ) Pressure ( in mb ) Visibility ( mi km ) Precip ( " mm )
12:51 am 00:51 Clear 81 27.2 54 12.2 39 39 ESE 5 7 29.85 1011 10 16.0934 0 0
1:51 am 01:51 Clear 79 26.1 53 11.7 41 41 SW 8 13 29.83 1010 10 16.0934 0 0
2:51 am 02:51 Clear 77 25 56 13.3 48 48 Calm 29.83 1010 10 16.0934 0 0
3:51 am 03:51 Clear 77 25 56 13.3 48 48 ESE 5 7 29.86 1011 10 16.0934 0 0
4:51 am 04:51 Clear 78 25.6 54 12.2 43 43 SSE 7 11 29.87 1012 10 16.0934 0 0
5:51 am 05:51 Sunny 79 26.1 53 11.7 41 41 E 8 13 29.89 1012 10 16.0934 0 0
6:51 am 06:51 Sunny 83 28.3 54 12.2 37 37 ESE 10 17 29.9 1013 10 16.0934 0 0
7:51 am 07:51 Sunny 86 30 52 11.1 31 31 ESE 10 17 29.91 1013 10 16.0934 0 0
8:51 am 08:51 Sunny 90 32.2 51 10.6 26 26 E 7 11 29.9 1013 10 16.0934 0 0
9:51 am 09:51 Sunny 93 33.9 51 10.6 24 24 SSE 5 7 29.9 1012 10 16.0934 0 0
10:51 am 10:51 Sunny 96 35.6 53 11.7 23 23 SSW 8 13 29.89 1012 10 16.0934 0 0
11:51 am 11:51 Sunny 98 36.7 54 12.2 23 23 VRB 7 11 29.88 1012 10 16.0934 0 0
12:51 pm 12:51 Sunny 100 37.8 55 12.8 22 22 W 10 17 29.85 1011 10 16.0934 0 0
1:51 pm 13:51 Sunny 104 40 51 10.6 17 17 W 13 20 29.81 1010 10 16.0934 0 0
2:51 pm 14:51 Sunny 105 40.6 48 8.9 15 15 W 20 31 29.78 1008 10 16.0934 0 0
3:51 pm 15:51 Sunny 106 41.1 44 6.7 12 12 WNW 15 24 29.74 1007 10 16.0934 0 0
4:51 pm 16:51 Sunny 105 40.6 43 6.1 12 12 W 13 20 29.72 1006 10 16.0934 0 0
5:51 pm 17:51 Sunny 104 40 46 7.8 14 14 W 12 19 29.72 1006 10 16.0934 0 0
6:51 pm 18:51 Sunny 99 37.2 48 8.9 18 18 W 14 22 29.73 1007 10 16.0934 0 0
7:51 pm 19:51 Clear 95 35 49 9.4 21 21 WNW 10 17 29.75 1008 10 16.0934 0 0
8:51 pm 20:51 Clear 93 33.9 49 9.4 22 22 NW 14 22 29.78 1008 10 16.0934 0 0
9:51 pm 21:51 Clear 92 33.3 51 10.6 25 25 NNW 17 28 29.8 1009 10 16.0934 0 0
10:51 pm 22:51 Clear 91 32.8 52 11.1 26 26 NNW 10 17 29.81 1009 10 16.0934 0 0
11:51 pm 23:51 Clear 88 31.1 53 11.7 30 30 W 9 15 29.82 1010 10 16.0934 0 0

Powered by AerisWeather